Location: Unspecified
(49.2170°N, 0.0000°E)
Time: 03:13:11
(UTC+00:00)

Vanguard 3 - Pass Details

Date: 28 June 2019
Orbit: 507 x 3264 km, 33.4° (Epoch: 21 July)

Event Time Altitude Azimuth Distance (km) Brightness Sun altitude
Rises 06:43:45 0° 191° (S) 7,220 11.8 23.9°
Reaches altitude 10° 06:51:56 10° 173° (S) 6,091 11.7 25.2°
Maximum altitude 07:00:53 16° 144° (SE) 5,249 11.8 26.7°
Drops below altitude 10° 07:08:37 10° 115° (ESE) 5,197 12.4 27.9°
Sets 07:14:26 0° 95° (E) 5,688 12.7 28.9°
